Location: Newark
(52.8300°N, 8.0000°E)
Time: 06:21:30
(UTC+00:00)

STARLINK-1080 - Pass Details

Date: 01 February 2020
Orbit: 348 x 351 km, 53.0° (Epoch: 24 February)

Event Time Altitude Azimuth Distance (km) Brightness Sun altitude
Rises 17:27:09 0° 282° (WNW) 2,166 8.0 -11.4°
Reaches altitude 10° 17:29:28 10° 265° (W) 1,319 7.1 -11.8°
Maximum altitude 17:31:43 20° 215° (SW) 890 5.3 -12.1°
Drops below altitude 10° 17:33:57 10° 165° (SSE) 1,313 5.5 -12.4°
Enters shadow 17:36:08 - 148° (SSE) 2,103 6.4 -12.7°
